Regional Weather Roundup
Issued by NWS

Home | Current Version | Previous Version | Text Only | Print | Product List | Glossary Off
Versions: 1 2 3 4 5 6 7 8 9 10 11 12 13 14 15 16 17 18 19 20 21 22 23 24 25 26 27 28 29 30 31 32 33 34 35 36 37 38 39 40 41 42 43 44 45 46 47 48 49 50

000
ASUS43 KLOT 160906
RWRIL

ILLINOIS REGIONAL WEATHER ROUNDUP
NATIONAL WEATHER SERVICE CHICAGO/ROMEOVILLE IL
400 AM CDT TUE SEP 16 2014

NOTE: "FAIR" INDICATES FEW OR NO CLOUDS BELOW 12,000 FEET WITH NO
SIGNIFICANT WEATHER AND/OR OBSTRUCTIONS TO VISIBILITY.

* THESE STATIONS ARE NOT UNDER NWS QUALITY CONTROL. THEY ALSO MAY NOT
  REPORT WEATHER SUCH AS PRECIPITATION OR FOG.

ILZ001-002-007-009-015-016-024-161000-
NORTHWEST ILLINOIS

CITY           SKY/WX    TMP DP  RH WIND       PRES   REMARKS
MOLINE         CLEAR     43  41  93 CALM      30.23S
STERLING*      CLEAR     43  39  87 W3        30.22S
SAVANNA*       CLEAR     42  41  95 CALM      30.22S
$$

ILZ003-004-008-010-011-017-018-161000-
NORTH CENTRAL ILLINOIS

CITY           SKY/WX    TMP DP  RH WIND       PRES   REMARKS
ROCKFORD       CLEAR     43  39  86 CALM      30.23R
FREEPORT*      CLEAR     42  40  95 CALM      30.24R
ROCHELLE*      FOG       38  37  99 CALM      30.21S VSB 1/4
DE KALB*       CLEAR     41  40  97 NW6       30.21S
PERU*          FOG       44  44  97 NW5       30.22S VSB 3/4
$$

ILZ005-006-012>014-019>023-161000-
NORTHEAST ILLINOIS

CITY           SKY/WX    TMP DP  RH WIND       PRES   REMARKS
CHICAGO-OHARE  CLEAR     47  44  90 W5        30.19R
CHICAGO-MIDWAY PTCLDY    50  47  89 W6        30.19S
AURORA         CLEAR     42  39  89 W5        30.21R FOG
LANSING*       MOCLDY    48  47  97 CALM      30.19S
JOLIET*        CLEAR     45  44  95 N3        30.20F
WAUKEGAN       CLEAR     46  43  89 NW6       30.17S
DUPAGE AIRPORT CLEAR     43  40  89 CALM      30.19S
KANKAKEE*      CLEAR     49  48  95 NW3       30.19S
WHEELING       CLEAR     47  44  90 CALM      30.20R
MORRIS*        CLEAR     45  45 100 NW5       30.20S FOG
ROMEOVILLE*    CLEAR     45  45 100 N5        30.19S FOG
NORTHERLY ISL    N/A     53  46  77 W6          N/A
$$

LMZ740>746-161000-
SOUTHERN LAKE MICHIGAN

STATION/POSITION SKY/WX   TEMP    WIND        PRES    VSBY  WAVE
                          AIR SEA DIR/SP/G                  HT/PER
                          (F)     (DEG/KT/KT) (MB)    (MI)  (FT/S)
SOUTHERN BUOY              58 64  310/ 10/ 12 1021.6F         1/ 3
WAUKEGAN HARBOR            49     310/  8/ 12   N/A
HARRISON CRIB              53     280/  9/ 10   N/A
BURNHAM HARBOR             52     270/  6/  7   N/A
CALUMET HARBOR             51     280/  3/  3 1020.7R
MICHIGAN CITY              57      30/ 11/ 16   N/A
MICHIGAN CITY 6N           59 64   30/ 12/ 16   N/A           3/ 5
ST. JOSEPH                 56 66   60/ 10/ 14   N/A           2/ 4
$$

ILZ025>027-034>036-040-047-049-050-058-095>099-161000-
WEST-CENTRAL ILLINOIS

CITY           SKY/WX    TMP DP  RH WIND       PRES   REMARKS
QUINCY         CLEAR     48  46  93 CALM      30.23S
GALESBURG*     FOG       39  39  98 CALM      30.23R VSB 1
MACOMB*        CLEAR     41  41 100 CALM      30.25S FOG
JACKSONVILLE*  CLOUDY    56  54  94 N6        30.23S
PITTSFIELD*    CLOUDY    55  51  86 N5        30.23S
$$

ILZ028>032-037-038-041>044-048-051>054-059>061-161000-
CENTRAL ILLINOIS

CITY           SKY/WX    TMP DP  RH WIND       PRES   REMARKS
PONTIAC        CLEAR     46  46 100 NW3       30.20S FOG
DECATUR        CLOUDY    55  53  93 N10       30.20R
PEORIA         CLEAR     50  46  86 N5        30.22S
LACON*         FOG       43  42  97 CALM      30.21S VSB 1/4
LINCOLN*       MOCLDY    53  51  94 N5        30.20R
SPRINGFIELD    CLOUDY    55  53  93 N5        30.22R
TAYLORVILLE    CLOUDY    52  52 100 NW5       30.21R FOG
$$

ILZ033-039-045-046-055>057-062-063-161000-
EAST-CENTRAL ILLINOIS

CITY           SKY/WX    TMP DP  RH WIND       PRES   REMARKS
CHAMPAIGN      CLOUDY    55  54  96 NW6       30.19R FOG
DANVILLE*      CLOUDY    54  53  98 N9        30.15R FOG
MATTOON        CLOUDY    55  52  89 N8        30.17R
PARIS*         CLOUDY    55  54  97 N7        30.17R FOG
$$

ILZ079-100>102-161000-
SOUTHWEST ILLINOIS

CITY           SKY/WX    TMP DP  RH WIND       PRES   REMARKS
ALTON          CLOUDY    57  55  93 NE6       30.21R
BELLEVILLE     CLOUDY    57  56  97 VRB2      30.19R
CAHOKIA*       CLOUDY    59  55  87 NE10      30.19S
SPARTA*        CLOUDY    57  55  95 N5        30.19S
$$

ILZ064>066-069>071-074>076-080>082-084>086-088>090-092>094-161000-
SOUTH-CENTRAL ILLINOIS

CITY           SKY/WX    TMP DP  RH WIND       PRES   REMARKS
CARBONDALE     CLOUDY    60  54  80 VRB7      30.17R
CAIRO*         CLOUDY    66  61  85 N8        30.13S
EFFINGHAM*     CLOUDY    56  52  86 N7        30.18S
MARION         CLOUDY    63  57  82 N7        30.16S
MT. VERNON     CLOUDY    59  54  82 N6        30.18R
CENTRALIA*     CLOUDY    57  53  85 N8        30.18R
SALEM*         CLOUDY    58  56  91 N9        30.19R
METROPOLIS*    CLOUDY    64  62  94 N7        30.12S
$$

ILZ067-068-072-073-078-083-087-091-161000-
SOUTHEAST ILLINOIS

CITY           SKY/WX    TMP DP  RH WIND       PRES   REMARKS
LAWRENCEVILLE  CLOUDY    58  56  93 N9        30.15R
FLORA*         CLEAR     58  55  89 N9        30.18R
FAIRFIELD*     CLOUDY   N/A N/A N/A N3        30.16R
HARRISBURG*    CLOUDY    60  56  88 N9        30.17R
ROBINSON*      CLOUDY    59  57  95 N6        30.16R
CARMI*         CLOUDY    61  60  96 NW9       30.15R
$$

ABBREVIATIONS USED IN REMARKS
   TC - TEMPERATURE IN CELSIUS
  WCI - WIND CHILL INDEX
   HX - HEAT INDEX
  VSB - VISIBILITY
$$




USA.gov is the U.S. government's official web portal to all federal, state and local government web resources and services.